Starlink 32759

operational
NORAD ID: 62751 Int'l Des: 2025-014 Owner: SPXS Country: US Constellation: starlink
LEOCIRCULAR

About Starlink 32759

Description loading...

Live Position

Loading 3D Globe...

Upcoming Passes

Altitude History

Altitude vs Time

uPlot chart will show altitude changes over time

Two-Line Element Set

1 62751U 25014S 25304.67734257 .00033537 00000-0 12221-2 0 9999
2 62751 43.0026 166.7044 0000131 308.4235 51.6604 15.27596760 43485
Epoch: Oct 31, 2025 • Age: 23 hours

Current Status

Altitude 482.2 km
Velocity 7.63 km/s
Sub-Earth Point 19.68°N, 54.6°E
Launch Date Jan 21, 2025
Age 0.7 years
Type internet

Technical Details

Classification Payload
Mass 730.00 kg
Dry Mass 700.00 kg
Total Mass 730.00 kg
Length 0.30 m
Diameter 4.10 m
Span 29.00 m
Shape Box + pan
Manufacturer SPXS
Bus Type Starlink V2M
Phase Status In Orbit
Owner/State SPXS/US

Large Constellations

Loading constellations...